Location: Mahannah Oil Field
(37.4664°N, 96.6003°W)
Time: 14:23:59
(UTC+00:00)

Altair - Pass Details

Date: 21 January 2021
Orbit: 1501 x 1682 km, 47.2° (Epoch: 05 March)

Event Time Altitude Azimuth Distance (km) Brightness Sun altitude
Exits shadow 10:07:30 18° 173° (S) 3,244 9.1 -41.4°
Maximum altitude 10:13:02 31° 128° (SE) 2,632 8.9 -40.3°
Drops below altitude 10° 10:21:23 10° 72° (ENE) 3,943 10.3 -38.7°
Sets 10:25:03 0° 63° (ENE) 4,938 10.9 -37.9°
